User: anonymous   Login
Location: Nairn
(57.5833°N, 3.8667°W)
Time: 12:07:46
(UTC+00:00)
Language:

Cosmos 158 Rocket - Orbit

View from above orbital plane
View from above orbital plane
View from above satellite
View from above satellite

Ground track
Ground track

The orbit data is extracted from the following two-line orbital elements,

1  2802U 67045B   20293.61438457 +.00000066 +00000-0 +26900-4 0  9991
2  2802 074.0133 054.5350 0066338 176.4890 183.6747 14.43782058805107
Epoch (UTC): 19 October 2020 14:44:42
Eccentricity: 0.0066338
inclination: 74.0133°
perigee height: 699 km
apogee height: 793 km
right ascension of ascending node: 54.5350°
argument of perigee: 176.4890°
revolutions per day: 14.43782058
mean anomaly at epoch: 183.6747°
orbit number at epoch: 80510

The dashed part of the orbit path shows where the satellite is in the earth's shadow,  

DLR